Location: Colonia Herrera
(32.5167°N, 117.0667°W)
Time: 13:17:37
(UTC+00:00)

Daily predictions for brighter satellites

Satellite Brightness Start Highest point End
(mag) Time Altitude Azimuth Time Altitude Azimuth Time Altitude Azimuth
APEX 4.0 12:00:03 10° NNW 12:04:45 68° WSW 12:10:37 10° SSE
Cosmos 2227 Rocket 3.0 12:00:43 10° NW 12:05:32 29° WSW 12:10:19 10° SSW
Meteor 2-10 Rocket 3.7 12:01:29 10° N 12:07:15 86° W 12:12:47 10° S
Cosmos 676 Rocket 4.2 12:03:21 10° NNW 12:08:38 79° ENE 12:13:54 10° SSE
Cosmos 1484 Rocket 3.0 12:05:01 10° NNE 12:08:58 76° E 12:12:50 10° S
Cosmos 2297 Rocket 3.4 12:05:08 10° NW 12:09:07 20° W 12:13:06 10° SW
SL-24 R/B 3.6 12:09:01 10° S 12:12:39 83° W 12:16:25 10° NNW
Cosmos 1300 4.0 12:09:50 10° NW 12:12:47 22° W 12:15:44 10° SW
Cosmos 407 Rocket 4.1 12:09:30 10° NW 12:14:21 36° W 12:19:11 10° SSW
CZ-2C R/B 3.9 12:11:27 10° NNW 12:14:54 28° WNW 12:18:21 10° SW
Cosmos 2082 3.9 12:11:38 10° NNW 12:17:07 50° WSW 12:22:35 10° S
SL-16 R/B 2.4 12:13:35 10° SSW 12:19:13 78° ESE 12:24:54 10° NNE
CZ-2C R/B 3.4 12:16:24 10° N 12:20:52 32° WNW 12:25:24 10° SW
Okean 1-7 Rocket 3.7 12:17:48 10° S 12:22:18 89° ESE 12:26:53 10° N
Atlas Centaur 2 3.8 12:19:44 10° SSW 12:24:31 22° SSE 12:28:33 10° ESE
Cosmos 1452 Rocket 3.8 12:21:29 10° SSW 12:26:36 53° WNW 12:31:46 10° N
Lacrosse 4 Rocket 3.7 12:25:38 10° W 12:27:31 12° NW 12:29:24 10° NNW
Aureole 2 Rocket 3.1 12:25:56 10° N 12:28:32 44° ENE 12:31:09 10° SSE
CZ-4C R/B 3.8 12:26:01 10° SSE 12:29:12 52° ENE 12:32:21 10° N
NOSS 3-2 (A) 3.3 12:23:54 10° SSW 12:29:15 84° ESE 12:35:14 10° NNE
Tsikada Rocket 4.1 12:23:30 10° S 12:29:55 82° W 12:36:21 10° N
Cosmos 1892 Rocket 4.2 12:27:18 10° SSW 12:31:19 36° W 12:35:20 10° NNW
